• In Czech Republic
  • List of Countries
  • For 7 days
  • Water Temperature
  • Satellite Maps
  • Weather Map
  • Weather Widgets
  • user-avatar
    Login

    Hourly Weather Kapan

    Today, 17 August, Friday

    Time Temperature Precipitation Wind Pressure Humidity
    00:00 +21°C° 0 mm 2 mps 684 mmHg 69%
    01:00 +21°C° 0 mm 2 mps 684 mmHg 69%
    02:00 +21°C° 0 mm 2 mps 684 mmHg 69%
    03:00 +22°C° 0 mm 1 mps 683 mmHg 67%
    04:00 +22°C° 0 mm 1 mps 683 mmHg 65%
    05:00 +23°C° 0 mm 1 mps 683 mmHg 64%
    06:00 +23°C° 0 mm 1 mps 684 mmHg 62%
    07:00 +25°C° 0 mm 1 mps 684 mmHg 55%
    08:00 +27°C° 0 mm 2 mps 684 mmHg 47%
    09:00 +30°C° 0 mm 2 mps 684 mmHg 39%
    10:00 +31°C° 0 mm 2 mps 684 mmHg 36%
    11:00 +33°C° 0 mm 3 mps 684 mmHg 33%
    12:00 +34°C° 0 mm 3 mps 684 mmHg 30%
    13:00 +34°C° 0 mm 3 mps 683 mmHg 29%
    14:00 +35°C° 0 mm 3 mps 683 mmHg 29%
    15:00 +35°C° 0 mm 3 mps 682 mmHg 29%
    16:00 +34°C° 0 mm 3 mps 682 mmHg 32%
    17:00 +33°C° 0 mm 3 mps 682 mmHg 35%
    18:00 +31°C° 0 mm 3 mps 682 mmHg 39%
    19:00 +29°C° 0 mm 3 mps 682 mmHg 45%
    20:00 +27°C° 0 mm 2 mps 682 mmHg 52%
    21:00 +25°C° 0 mm 2 mps 681 mmHg 58%
    22:00 +25°C° 0 mm 2 mps 681 mmHg 60%
    23:00 +24°C° 0 mm 2 mps 681 mmHg 62%

    Tomorrow, 18 August, Saturday

    Time Temperature Precipitation Wind Pressure Humidity
    00:00 +24°C° 0 mm 2 mps 681 mmHg 64%
    01:00 +23°C° 0 mm 2 mps 681 mmHg 65%
    02:00 +23°C° 0 mm 2 mps 681 mmHg 67%
    03:00 +23°C° 0 mm 2 mps 681 mmHg 68%
    04:00 +23°C° 0 mm 2 mps 681 mmHg 67%
    05:00 +23°C° 0 mm 2 mps 681 mmHg 67%
    06:00 +23°C° 0 mm 2 mps 681 mmHg 66%
    07:00 +25°C° 0 mm 2 mps 681 mmHg 57%
    08:00 +27°C° 0 mm 2 mps 681 mmHg 48%
    09:00 +29°C° 0 mm 3 mps 682 mmHg 40%
    10:00 +30°C° 0 mm 3 mps 681 mmHg 37%
    11:00 +33°C° 0 mm 3 mps 681 mmHg 34%
    12:00 +34°C° 0 mm 4 mps 681 mmHg 31%
    13:00 +34°C° 0 mm 4 mps 680 mmHg 30%
    14:00 +34°C° 0 mm 4 mps 680 mmHg 30%
    15:00 +34°C° 0 mm 4 mps 679 mmHg 30%
    16:00 +33°C° 0 mm 4 mps 679 mmHg 33%
    17:00 +32°C° 0 mm 4 mps 679 mmHg 37%
    18:00 +30°C° 0 mm 4 mps 679 mmHg 41%
    19:00 +28°C° 0 mm 4 mps 679 mmHg 47%
    20:00 +26°C° 0 mm 3 mps 679 mmHg 54%
    21:00 +24°C° 0 mm 3 mps 679 mmHg 60%
    22:00 +24°C° 0 mm 2 mps 679 mmHg 63%
    23:00 +23°C° 0 mm 2 mps 679 mmHg 66%

    Day after tomorrow, 19 August, Sunday

    Time Temperature Precipitation Wind Pressure Humidity
    00:00 +21°C° 0 mm 2 mps 679 mmHg 69%
    01:00 +21°C° 0 mm 2 mps 680 mmHg 70%
    02:00 +21°C° 0 mm 2 mps 680 mmHg 70%
    03:00 +20°C° 0 mm 2 mps 680 mmHg 71%
    04:00 +20°C° 0 mm 2 mps 680 mmHg 69%
    05:00 +21°C° 0 mm 2 mps 680 mmHg 67%
    06:00 +21°C° 0 mm 2 mps 680 mmHg 65%
    07:00 +24°C° 0 mm 2 mps 681 mmHg 56%
    08:00 +25°C° 0 mm 3 mps 681 mmHg 48%
    09:00 +27°C° 0 mm 3 mps 681 mmHg 39%
    10:00 +28°C° 0 mm 4 mps 681 mmHg 37%
    11:00 +29°C° 0 mm 4 mps 681 mmHg 34%
    12:00 +32°C° 0 mm 4 mps 681 mmHg 31%
    13:00 +32°C° 0 mm 4 mps 681 mmHg 31%
    14:00 +32°C° 0 mm 5 mps 681 mmHg 30%
    15:00 +32°C° 0 mm 5 mps 681 mmHg 30%
    16:00 +30°C° 0 mm 5 mps 681 mmHg 33%
    17:00 +29°C° 0 mm 5 mps 680 mmHg 36%
    18:00 +27°C° 0 mm 5 mps 680 mmHg 40%
    19:00 +26°C° 0 mm 4 mps 681 mmHg 45%
    20:00 +23°C° 0 mm 4 mps 681 mmHg 50%
    21:00 +22°C° 0 mm 3 mps 682 mmHg 55%
    22:00 +21°C° 0 mm 3 mps 682 mmHg 58%
    23:00 +20°C° 0 mm 3 mps 682 mmHg 60%

    20 August, Monday

    Time Temperature Precipitation Wind Pressure Humidity
    00:00 +20°C° 0 mm 3 mps 682 mmHg 63%
    01:00 +19°C° 0 mm 3 mps 682 mmHg 66%
    02:00 +19°C° 0 mm 2 mps 682 mmHg 69%
    03:00 +18°C° 0 mm 2 mps 682 mmHg 72%
    04:00 +18°C° 0 mm 2 mps 683 mmHg 73%
    05:00 +18°C° 0 mm 2 mps 683 mmHg 74%
    06:00 +18°C° 0 mm 2 mps 683 mmHg 75%
    07:00 +19°C° 0 mm 2 mps 684 mmHg 71%
    08:00 +21°C° 0 mm 3 mps 684 mmHg 66%
    09:00 +22°C° 0 mm 3 mps 685 mmHg 62%
    10:00 +24°C° 0 mm 3 mps 685 mmHg 59%
    11:00 +24°C° 0 mm 3 mps 685 mmHg 56%
    12:00 +25°C° 0 mm 4 mps 685 mmHg 54%
    13:00 +26°C° 0 mm 4 mps 684 mmHg 52%
    14:00 +26°C° 0 mm 4 mps 684 mmHg 50%
    15:00 +26°C° 0 mm 4 mps 684 mmHg 49%
    16:00 +26°C° 0 mm 4 mps 684 mmHg 52%
    17:00 +25°C° 0 mm 4 mps 684 mmHg 55%
    18:00 +23°C° 0 mm 4 mps 684 mmHg 58%
    19:00 +22°C° 0 mm 3 mps 684 mmHg 63%
    20:00 +20°C° 0 mm 3 mps 685 mmHg 69%
    21:00 +19°C° 0 mm 2 mps 685 mmHg 74%
    22:00 +19°C° 0 mm 2 mps 685 mmHg 75%
    23:00 +19°C° 0 mm 2 mps 685 mmHg 77%

    21 August, Tuesday

    Time Temperature Precipitation Wind Pressure Humidity
    00:00 +18°C° 0 mm 2 mps 685 mmHg 78%
    01:00 +18°C° 0 mm 2 mps 685 mmHg 79%
    02:00 +18°C° 0 mm 2 mps 685 mmHg 79%
    03:00 +18°C° 0 mm 2 mps 684 mmHg 80%
    04:00 +18°C° 0 mm 2 mps 685 mmHg 79%
    05:00 +18°C° 0 mm 2 mps 685 mmHg 77%
    06:00 +18°C° 0 mm 2 mps 685 mmHg 76%
    07:00 +20°C° 0 mm 2 mps 685 mmHg 68%
    08:00 +23°C° 0 mm 2 mps 686 mmHg 61%
    09:00 +25°C° 0 mm 3 mps 686 mmHg 53%
    10:00 +26°C° 0 mm 3 mps 686 mmHg 49%
    11:00 +28°C° 0 mm 3 mps 686 mmHg 45%
    12:00 +29°C° 0 mm 3 mps 686 mmHg 41%
    13:00 +29°C° 0 mm 3 mps 685 mmHg 40%
    14:00 +30°C° 0 mm 4 mps 685 mmHg 40%
    15:00 +30°C° 0 mm 4 mps 684 mmHg 40%
    16:00 +29°C° 0 mm 4 mps 684 mmHg 45%
    17:00 +28°C° 0 mm 4 mps 684 mmHg 49%
    18:00 +27°C° 0 mm 3 mps 684 mmHg 54%
    19:00 +25°C° 0 mm 3 mps 684 mmHg 61%
    20:00 +24°C° 0 mm 3 mps 684 mmHg 67%
    21:00 +21°C° 0 mm 2 mps 685 mmHg 74%
    22:00 +21°C° 0 mm 2 mps 684 mmHg 75%
    23:00 +20°C° 0 mm 2 mps 684 mmHg 77%

    22 August, Wednesday

    Time Temperature Precipitation Wind Pressure Humidity
    00:00 +20°C° 0 mm 2 mps 684 mmHg 79%
    01:00 +20°C° 0 mm 2 mps 684 mmHg 79%
    02:00 +20°C° 0 mm 2 mps 684 mmHg 80%
    03:00 +19°C° 0 mm 2 mps 684 mmHg 81%
    04:00 +19°C° 0 mm 2 mps 684 mmHg 79%
    05:00 +20°C° 0 mm 2 mps 685 mmHg 77%
    06:00 +20°C° 0 mm 2 mps 685 mmHg 75%
    07:00 +23°C° 0 mm 2 mps 685 mmHg 65%
    08:00 +25°C° 0 mm 2 mps 686 mmHg 56%
    09:00 +27°C° 0 mm 3 mps 686 mmHg 46%
    10:00 +28°C° 0 mm 3 mps 686 mmHg 42%
    11:00 +29°C° 0 mm 3 mps 685 mmHg 39%
    12:00 +31°C° 0 mm 3 mps 685 mmHg 35%
    13:00 +32°C° 0 mm 4 mps 685 mmHg 35%
    14:00 +32°C° 0 mm 4 mps 684 mmHg 34%
    15:00 +32°C° 0 mm 4 mps 684 mmHg 34%
    16:00 +30°C° 0 mm 4 mps 684 mmHg 37%
    17:00 +29°C° 0 mm 4 mps 684 mmHg 41%
    18:00 +28°C° 0 mm 4 mps 684 mmHg 44%
    19:00 +26°C° 0 mm 3 mps 684 mmHg 50%
    20:00 +24°C° 0 mm 3 mps 685 mmHg 55%
    21:00 +23°C° 0 mm 2 mps 685 mmHg 61%
    22:00 +21°C° 0 mm 2 mps 685 mmHg 62%
    23:00 +21°C° 0 mm 2 mps 685 mmHg 63%
    Show more